Location: San Antonio
(29.4240°N, 98.4930°W)
Time: 10:22:01
(UTC-05:00)

ACS3 Solar Sail - Pass Details

Date: 20 June 2024
Orbit: 992 x 1023 km, 97.4° (Epoch: 12 July)

Event Time Altitude Azimuth Distance (km) Brightness Sun altitude
Exits shadow 22:07:26 19° 94° (E) 2,205 6.2 -17.2°
Maximum altitude 22:09:26 22° 69° (ENE) 2,043 6.2 -17.5°
Drops below altitude 10° 22:13:58 10° 22° (NNE) 2,764 7.4 -18.3°
Sets 22:17:01 0° 7° (N) 3,713 8.3 -18.7°
